| time (UTC) | temp F | wind direction | speed MPH | gust MPH | rain 1hr in | rain 24hr in | rain mn in | humidity % | barometer mb |
| 20260507010807 | 50 | 272 | 5.0 | 9.0 | 0.00 | 0.00 | 0.00 | 55 | 1010.7 |
| 20260507010308 | 50 | 316 | 5.0 | 10.0 | 0.00 | 0.00 | 0.00 | 56 | 1010.8 |
| 20260507000807 | 49 | 286 | 6.0 | 9.0 | 0.00 | 0.00 | 0.00 | 56 | 1011.0 |
| 20260506230807 | 50 | 302 | 5.0 | 10.0 | 0.00 | 0.00 | 0.00 | 55 | 1010.9 |
| 20260506230307 | 50 | 290 | 5.0 | 9.0 | 0.00 | 0.00 | 0.00 | 55 | 1010.9 |
| 20260506220807 | 50 | 343 | 5.0 | 8.0 | 0.00 | 0.00 | 0.00 | 56 | 1010.9 |
| 20260506220309 | 50 | 303 | 5.0 | 10.0 | 0.00 | 0.00 | 0.00 | 55 | 1010.9 |
| 20260506210806 | 51 | 270 | 3.0 | 8.0 | 0.00 | 0.00 | 0.00 | 54 | 1010.8 |
| 20260506200806 | 49 | 293 | 5.0 | 8.0 | 0.00 | 0.00 | 0.00 | 57 | 1010.9 |
| 20260506200308 | 49 | 279 | 6.0 | 9.0 | 0.00 | 0.00 | 0.00 | 57 | 1011.0 |
| 20260506190808 | 49 | 278 | 5.0 | 8.0 | 0.00 | 0.00 | 0.00 | 56 | 1010.6 |
| 20260506190310 | 49 | 277 | 4.0 | 7.0 | 0.00 | 0.00 | 0.00 | 57 | 1010.7 |
| 20260506180807 | 47 | 336 | 3.0 | 6.0 | 0.00 | 0.00 | 0.00 | 60 | 1011.0 |
| 20260506170307 | 44 | 273 | 3.0 | 6.0 | 0.00 | 0.00 | 0.00 | 68 | 1011.5 |
| 20260506160806 | 41 | 151 | 4.0 | 7.0 | 0.00 | 0.00 | 0.00 | 72 | 1011.5 |
| 20260506160307 | 41 | 137 | 3.0 | 7.0 | 0.00 | 0.00 | 0.00 | 73 | 1011.5 |
| 20260506150807 | 38 | 275 | 3.0 | 3.0 | 0.00 | 0.00 | 0.00 | 79 | 1011.5 |
| 20260506150307 | 38 | 267 | 3.0 | 5.0 | 0.00 | 0.00 | 0.00 | 79 | 1011.5 |
| 20260506140806 | 32 | 262 | 2.0 | 2.0 | 0.00 | 0.00 | 0.00 | 88 | 1011.4 |
| 20260506140308 | 32 | 280 | 2.0 | 3.0 | 0.00 | 0.00 | 0.00 | 89 | 1011.3 |
| 20260506130806 | 28 | 120 | 2.0 | 3.0 | 0.00 | 0.00 | 0.00 | 94 | 1010.8 |
| 20260506120806 | 30 | 286 | 2.0 | 3.0 | 0.00 | 0.00 | 0.00 | 90 | 1010.2 |
| 20260506120306 | 30 | 285 | 2.0 | 3.0 | 0.00 | 0.00 | 0.00 | 89 | 1010.2 |
| 20260506110807 | 33 | 268 | 2.0 | 3.0 | 0.00 | 0.00 | 0.00 | 86 | 1009.6 |
| 20260506110306 | 33 | 273 | 2.0 | 5.0 | 0.00 | 0.00 | 0.00 | 86 | 1009.8 |
| 20260506100806 | 35 | 288 | 2.0 | 3.0 | 0.00 | 0.00 | 0.00 | 82 | 1009.2 |
| 20260506100307 | 35 | 274 | 3.0 | 6.0 | 0.00 | 0.00 | 0.00 | 82 | 1009.1 |
| 20260506090307 | 38 | 273 | 2.0 | 5.0 | 0.00 | 0.00 | 0.00 | 77 | 1008.8 |
| 20260506080807 | 39 | 277 | 3.0 | 5.0 | 0.00 | 0.00 | 0.00 | 76 | 1008.0 |
| 20260506070814 | 42 | 281 | 6.0 | 7.0 | 0.00 | 0.00 | 0.00 | 70 | 1007.4 |
| 20260506070308 | 42 | 269 | 5.0 | 8.0 | 0.00 | 0.00 | 0.00 | 68 | 1007.3 |
| 20260506060806 | 44 | 270 | 5.0 | 6.0 | 0.00 | 0.00 | 0.00 | 65 | 1006.9 |
| 20260506060306 | 45 | 127 | 1.0 | 7.0 | 0.00 | 0.00 | 0.00 | 64 | 1006.8 |
| 20260506050307 | 47 | 265 | 2.0 | 6.0 | 0.00 | 0.00 | 0.00 | 61 | 1006.1 |
| 20260506040806 | 51 | 336 | 4.0 | 6.0 | 0.00 | 0.00 | 0.00 | 57 | 1005.5 |
| 20260506040307 | 51 | 284 | 5.0 | 7.0 | 0.00 | 0.00 | 0.00 | 57 | 1005.4 |
| 20260506030806 | 53 | 293 | 3.0 | 6.0 | 0.00 | 0.00 | 0.00 | 54 | 1005.0 |
| 20260506030308 | 53 | 333 | 2.0 | 7.0 | 0.00 | 0.00 | 0.00 | 54 | 1005.0 |
| 20260506020807 | 55 | 279 | 1.0 | 3.0 | 0.00 | 0.00 | 0.00 | 52 | 1004.7 |